Terug naar catalogus

ONEWEB-0125

ActiefCommunicatiePO
NORAD 47271·PAYLOAD·🇬🇧 United Kingdom

Gelanceerd Dec 18, 2020 vanaf Vostochny Cosmodrome

Loading…

Volgende Passages (komende 24 uur)

TLE

VersSource: CelesTrak SupGP

Epoch: Sep 14, 2026, 20:25 UTC

1 47271C 20100P   26257.85119630 -.00001460  00000+0 -40636-2 0  2579
2 47271  87.8983 332.8587 0002152 107.0136 355.3521 13.12440896    13

Volg ONEWEB-0125 in realtime met AllMySat

Download on the App Store